User: anonymous   Login
Location: Muenchen
(48.1800°N, 11.5800°E)
Time: 07:59:10
(UTC+02:00)
Language:

ISS - Orbit

View from above orbital plane
View from above orbital plane
View from above satellite
View from above satellite

Ground track
Ground track

The orbit data is extracted from the following two-line orbital elements,

1 25544U 98067A   16210.72553241  .00000963  00000-0  21250-4 0  9991
2 25544  51.6431 210.7749 0002162  83.8331 269.4538 15.54889966 11447
Epoch (UTC): 28 July 2016 17:24:46
Eccentricity: 0.0002162
inclination: 51.6431°
perigee height: 401 km
apogee height: 404 km
right ascension of ascending node: 210.7749°
argument of perigee: 83.8331°
revolutions per day: 15.54889966
mean anomaly at epoch: 269.4538°
orbit number at epoch: 1144

The dashed part of the orbit path shows where the satellite is in the earth's shadow,  

DLR